Simultaneous Nadir Overpasses (SNOs) Predictions

Prediction of SNOs between GOES-16 and NOAA-19 Satellite Orbit:

Table of predicted SNOs for the next 14.0 days since TLE Epoch: 10/26/2024
Index Date Time (GOES-16) GOES-16 Lat,Lon NOAA-19 Lat,Lon Distance(km) Time Diff (sec)
1 10/26/2024 14:41:03 -0.04, -75.22 0.50, -77.61 272.38 80
2 10/27/2024 14:25:58 -0.04, -75.23 -0.21, -74.59 73.25 80
3 10/28/2024 14:13:31 -0.04, -75.23 -0.87, -71.56 418.98 80
4 10/30/2024 02:47:42 0.04, -75.23 -0.87, -79.13 445.78 80
5 10/31/2024 02:35:17 0.04, -75.24 -0.14, -76.12 99.65 80
6 11/01/2024 02:22:50 0.04, -75.25 0.53, -73.09 246.68 80
7 11/03/2024 14:41:57 -0.03, -75.31 0.50, -77.65 266.41 80
8 11/04/2024 14:26:51 -0.03, -75.33 -0.19, -74.62 80.13 80
9 11/05/2024 14:14:24 -0.03, -75.34 -0.88, -71.60 426.73 80
10 11/07/2024 02:48:35 0.02, -75.34 -0.88, -79.16 437.07 80
11 11/08/2024 02:36:08 0.02, -75.35 -0.19, -76.14 90.22 80
